{"data":{"norad_id":66019,"intl_designator":"2025-232Q","name":"STARLINK-35382","alt_names":[],"object_type":"PAYLOAD","status":"ACTIVE","operator":null,"country":"US","launch_date":"2025-10-16","launch_site_code":"AFETR","launch_vehicle":null,"mission":null,"orbit_class":"UNKNOWN","rcs_meters":null,"size_class":null,"mass_kg":null,"dimensions":null,"purposes":["comms"],"wikipedia_slug":null,"has_3d_model":false,"image_url":null,"decayed_at":null,"tle_current":{"epoch":"2026-05-25T04:10:30.042912Z","epoch_age_seconds":57199,"freshness":"FRESH","line1":"1 66019U 25232Q   26145.17395883  .00018087  00000+0  62105-3 0  9998","line2":"2 66019  53.1591 108.7857 0001450  94.7098 265.4069 15.30214250 35149","mean_motion":15.3021425,"eccentricity":0.000145,"inclination_deg":53.1591,"raan_deg":108.7857,"arg_perigee_deg":94.7098,"mean_anomaly_deg":265.4069,"bstar":0.00062105,"rev_number":3514,"period_min":94.104469357804,"perigee_km":474.17879193743,"apogee_km":476.16625169876,"semimajor_km":6853.3095218181,"source":"CELESTRAK","updated_at":"2026-05-25T13:38:21.016439Z"}}}